Location: Mohawk View
(42.7837°N, 73.7885°W)
Time: 13:03:36
(UTC+00:00)

Cosmos 1315 Rocket - Pass Details

Date: 17 June 2021
Orbit: 528 x 568 km, 81.2° (Epoch: 26 July)

Event Time Altitude Azimuth Distance (km) Brightness Sun altitude
Rises 01:06:50 0° 357° (N) 2,779 7.1 -5.4°
Reaches altitude 10° 01:09:09 10° 6° (N) 1,877 6.0 -5.7°
Maximum altitude 01:13:03 38° 75° (ENE) 872 3.6 -6.3°
Drops below altitude 10° 01:16:53 10° 145° (SE) 1,854 4.9 -6.8°
Enters shadow 01:17:22 - 147° (SSE) 2,036 5.1 -6.9°
